New Castle, PA

10:24 PM EST on December 12, 2017 (GMT -0500)
New Castle Municipal

Weather History for KUCP - February, 2012

Change the Weather History Date:

Thursday, February 2, 2012

  Actual Average Record
Temperature  
Mean Temperature 34 °F -  
Max Temperature 36 °F 38 °F 63 °F (1989)
Min Temperature 32 °F 19 °F -21 °F (1961)
Degree Days  
Heating Degree Days 31    
Moisture  
Dew Point 29 °F    
Average Humidity 82    
Maximum Humidity 93    
Minimum Humidity 73    
Precipitation  
Precipitation 0.00 in - - ()
Sea Level Pressure  
Sea Level Pressure 30.26 in    
Wind  
Wind Speed 5 mph (NW)    
Max Wind Speed 13 mph    
Max Gust Speed -    
Visibility 9 miles    
Events Snow    
Averages and records for this station are not official NWS values.
T = Trace of Precipitation, MM = Missing Value Source: NWS Daily Summary

Daily Weather History Graph

Daily Weather History Graph

Search for Another Location

Airport or City:

Trip Planner

Search our weather history database for the weather conditions in past years. The results will help you decide how hot, cold, wet, or windy it might be!

Date:

Astronomy

Feb. 02, 2012 Rise Set
Actual Time 7:31 AM EST 5:39 PM EST
Civil Twilight 7:02 AM EST 6:08 PM EST
Nautical Twilight 6:29 AM EST 6:41 PM EST
Astronomical Twilight 5:57 AM EST 7:13 PM EST
Moon 12:48 PM EST (2/2) 3:13 AM EST (2/2)
Length of Visible Light 11h 05m
Length of Day
10h 07m
Waxing Gibbous, 73% of the Moon is Illuminated
Feb 2
Waxing Gibbous
Feb 7
Full
Feb 14
Last Quarter
Feb 21
New
Feb 29
First Quarter

Hourly Weather History & Observations

Time (EST) Temp. Windchill Dew Point Humidity Pressure Visibility Wind Dir Wind Speed Gust Speed Precip Events Conditions
12:56 AM 36.9 °F 33.1 °F 32.0 °F 83% 30.12 in 10.0 mi NNE 4.6 mph - N/A   Overcast
1:56 AM 36.0 °F 32.1 °F 31.1 °F 82% 30.14 in 10.0 mi North 4.6 mph - N/A   Overcast
2:56 AM 34.9 °F 30.8 °F 30.0 °F 82% 30.13 in 10.0 mi NE 4.6 mph - N/A   Scattered Clouds
3:15 AM 35.6 °F 32.8 °F 30.2 °F 81% 30.07 in 10.0 mi NNE 3.5 mph - N/A   Mostly Cloudy
3:56 AM 34.9 °F 32.0 °F 30.0 °F 82% 30.12 in 10.0 mi NE 3.5 mph - N/A   Overcast
4:56 AM 34.0 °F - 30.0 °F 85% 30.12 in 10.0 mi Calm Calm - N/A   Overcast
5:56 AM 34.0 °F 29.8 °F 30.0 °F 85% 30.14 in 10.0 mi NW 4.6 mph - N/A   Overcast
6:56 AM 34.9 °F - 31.1 °F 86% 30.17 in 9.0 mi Calm Calm - N/A   Overcast
7:21 AM 35.6 °F - 30.2 °F 81% 30.11 in 10.0 mi Calm Calm - N/A   Overcast
7:56 AM 34.9 °F 30.8 °F 31.1 °F 86% 30.20 in 8.0 mi NW 4.6 mph - N/A   Mostly Cloudy
8:56 AM 34.9 °F 29.9 °F 31.1 °F 86% 30.23 in 8.0 mi NNW 5.8 mph - N/A   Mostly Cloudy
9:56 AM 34.9 °F 30.8 °F 31.1 °F 86% 30.25 in 9.0 mi NW 4.6 mph - N/A   Overcast
10:56 AM 34.9 °F 29.0 °F 31.1 °F 86% 30.26 in 9.0 mi NW 6.9 mph - N/A   Overcast
11:06 AM 35.6 °F 31.7 °F 30.2 °F 81% 30.19 in 10.0 mi WNW 4.6 mph - N/A   Overcast
11:56 AM 36.0 °F 30.3 °F 30.0 °F 79% 30.27 in 10.0 mi WNW 6.9 mph - N/A   Overcast
12:16 PM 33.8 °F 27.7 °F 32.0 °F 93% 30.21 in 2.0 mi NW 6.9 mph - 0.00 in   Overcast
12:22 PM 33.8 °F 27.7 °F 32.0 °F 93% 30.21 in 7.0 mi NW 6.9 mph - 0.00 in   Overcast
12:56 PM 34.9 °F 29.0 °F 31.1 °F 86% 30.28 in 10.0 mi WNW 6.9 mph - 0.00 in   Overcast
1:09 PM 35.6 °F 31.7 °F 30.2 °F 81% 30.20 in 6.0 mi WNW 4.6 mph - N/A   Overcast
1:18 PM 35.6 °F 29.2 °F 30.2 °F 81% 30.20 in 10.0 mi NW 8.1 mph - N/A   Mostly Cloudy
1:29 PM 35.6 °F 29.2 °F 30.2 °F 81% 30.21 in 10.0 mi WNW 8.1 mph - N/A   Overcast
1:56 PM 34.9 °F 27.7 °F 31.1 °F 86% 30.30 in 10.0 mi WNW 9.2 mph - 0.00 in   Overcast
2:04 PM 35.6 °F 31.7 °F 30.2 °F 81% 30.22 in 10.0 mi WNW 4.6 mph - N/A   Mostly Cloudy
2:28 PM 35.6 °F 27.1 °F 30.2 °F 81% 30.23 in 10.0 mi NW 12.7 mph - N/A   Overcast
2:35 PM 33.8 °F 25.8 °F 30.2 °F 87% 30.24 in 2.5 mi WNW 10.4 mph - 0.00 in Snow Light Snow
2:49 PM 33.8 °F 26.4 °F 30.2 °F 87% 30.25 in 10.0 mi NW 9.2 mph - 0.00 in   Overcast
2:56 PM 32.9 °F 25.9 °F 31.1 °F 93% 30.33 in 10.0 mi NW 8.1 mph - 0.00 in   Overcast
3:56 PM 34.0 °F 28.0 °F 29.1 °F 82% 30.35 in 10.0 mi NW 6.9 mph - 0.00 in   Overcast
4:56 PM 34.0 °F 27.2 °F 29.1 °F 82% 30.38 in 10.0 mi NW 8.1 mph - N/A   Overcast
5:56 PM 34.0 °F 28.0 °F 29.1 °F 82% 30.40 in 10.0 mi NW 6.9 mph - N/A   Overcast
6:18 PM 33.8 °F 28.6 °F 28.4 °F 81% 30.33 in 10.0 mi NW 5.8 mph - N/A   Overcast
6:56 PM 34.0 °F 29.8 °F 28.0 °F 79% 30.42 in 10.0 mi WNW 4.6 mph - N/A   Overcast
7:56 PM 34.0 °F 25.5 °F 26.1 °F 73% 30.45 in 10.0 mi NW 11.5 mph - N/A   Overcast
8:56 PM 32.9 °F 27.5 °F 25.2 °F 73% 30.47 in 10.0 mi WNW 5.8 mph - N/A   Overcast
9:56 PM 32.9 °F 28.5 °F 25.2 °F 73% 30.48 in 10.0 mi NNW 4.6 mph - N/A   Overcast
10:56 PM 32.9 °F 27.5 °F 25.2 °F 73% 30.48 in 10.0 mi WNW 5.8 mph - N/A   Overcast
11:56 PM 32.0 °F - 25.2 °F 76% 30.49 in 10.0 mi Calm Calm - N/A   Overcast